Torna al catalogo

STARLINK-36087

AttivoComunicazioniVLEO
NORAD 66854·PAYLOAD·🇺🇸 United States

Lanciato Dec 2, 2025 da Cape Canaveral Space Force Station

Loading…

Prossimi Passaggi (prossime 24 ore)

TLE

AggiornatoSource: CelesTrak SupGP

Epoca: Sep 14, 2026, 21:27 UTC

1 66854C 25281G   26257.89423611  .00000163  00000+0  59099-5 0  2576
2 66854  43.0015 354.7074 0001440 274.8638 122.7476 15.27570414    17

Traccia STARLINK-36087 in tempo reale con AllMySat

Download on the App Store